z/d,0,0,50,50,100,100,150,150,200,200,300,300,400,400,500,500,600,600,750,750,1000,1000,1250,1250,1500,1500,1750,1750,1900,1900,2000,2000
2019.01.09-01:00,1.78,241.45,1.96,250.03,1.83,253.29,1.30,256.56,1.20,266.32,.87,269.52,.70,268.78,.63,269.32,.53,268.89,.38,282.36,.42,275.10,.56,258.91,.66,249.76,.67,243.48,.60,244.88,.16,232.90
2019.01.09-02:00,1.79,241.83,1.97,251.28,1.85,254.82,1.32,254.72,1.15,267.10,.85,268.66,.70,267.78,.64,267.10,.56,266.61,.42,278.55,.45,273.12,.60,258.64,.68,250.65,.70,244.76,.62,246.19,.16,235.23
2019.01.09-03:00,1.81,241.88,1.98,251.86,1.86,255.95,1.39,252.98,1.13,266.01,.85,266.33,.71,264.99,.66,264.50,.60,264.90,.47,275.63,.50,270.81,.64,258.18,.72,251.40,.73,246.40,.65,247.49,.17,236.65
2019.01.09-04:00,1.82,242.28,1.98,252.12,1.86,256.97,1.48,252.21,1.14,263.68,.87,263.31,.73,261.07,.70,261.83,.64,263.76,.52,273.50,.54,268.66,.68,257.50,.76,251.92,.75,248.08,.68,248.67,.17,237.39
2019.01.09-05:00,1.83,243.20,1.97,252.26,1.84,257.73,1.57,252.79,1.17,261.24,.92,260.92,.78,257.36,.74,259.69,.67,263.21,.55,271.97,.58,266.90,.71,256.78,.79,252.32,.77,249.73,.70,249.81,.18,238.13
2019.01.09-06:00,1.85,245.11,1.96,252.80,1.82,258.41,1.64,254.81,1.23,259.86,.97,259.82,.83,254.93,.77,258.51,.68,263.15,.56,270.62,.61,265.42,.72,256.06,.81,252.64,.77,251.25,.71,250.94,.18,239.21
2019.01.09-07:00,1.81,247.68,1.88,254.37,1.74,259.32,1.62,257.91,1.25,259.80,.99,260.07,.87,254.07,.80,258.44,.69,263.38,.56,268.91,.62,264.07,.73,255.63,.82,253.16,.77,252.74,.72,252.28,.18,241.14
2019.01.09-08:00,1.70,250.37,1.74,256.30,1.60,260.02,1.51,261.20,1.20,260.56,.97,260.70,.89,254.53,.82,259.55,.70,264.06,.57,266.92,.64,262.96,.74,255.76,.83,253.93,.76,254.09,.72,253.65,.18,243.45
2019.01.09-09:00,1.64,251.88,1.65,256.93,1.51,259.00,1.39,262.91,1.14,260.61,.93,260.66,.90,255.77,.81,261.57,.69,265.43,.57,265.48,.65,262.64,.74,256.75,.81,255.09,.74,255.40,.71,255.11,.17,245.50
2019.01.09-10:00,1.63,251.98,1.62,256.73,1.49,257.31,1.30,263.03,1.10,260.12,.90,260.49,.90,257.46,.80,263.89,.67,266.93,.57,264.52,.64,262.94,.73,258.38,.79,256.46,.71,256.41,.68,256.33,.17,246.71
2019.01.09-11:00,1.60,250.34,1.58,255.24,1.47,254.59,1.22,260.70,1.06,258.29,.85,258.79,.88,258.31,.76,265.08,.64,267.24,.55,262.45,.61,262.15,.70,259.06,.73,256.58,.66,255.38,.64,255.30,.16,244.12
2019.01.09-12:00,1.64,249.95,1.62,254.44,1.52,253.06,1.20,258.32,1.06,257.62,.85,258.40,.90,261.52,.78,268.05,.66,269.76,.57,263.89,.63,264.35,.71,262.63,.73,259.46,.67,257.07,.65,256.71,.16,245.52
2019.01.09-13:00,1.72,249.80,1.69,253.28,1.61,251.46,1.21,254.69,1.06,255.89,.85,256.95,.91,264.33,.78,270.12,.67,271.53,.59,265.21,.64,266.28,.71,265.67,.72,261.84,.68,258.30,.66,257.14,.17,245.17
2019.01.09-14:00,1.80,249.98,1.79,252.37,1.72,250.33,1.28,251.09,1.09,253.89,.89,255.31,.92,266.51,.79,271.07,.68,272.26,.60,266.20,.65,267.89,.70,267.90,.72,263.54,.68,259.21,.66,256.82,.17,243.62
2019.01.09-15:00,1.89,250.17,1.87,251.78,1.83,249.91,1.40,248.65,1.16,252.49,.95,254.16,.93,267.60,.80,270.38,.70,271.30,.63,266.04,.66,268.32,.70,268.30,.71,263.63,.69,258.96,.68,255.20,.17,240.44
2019.01.09-16:00,1.94,251.48,1.93,252.71,1.91,251.33,1.56,249.04,1.26,253.33,1.04,255.35,.95,269.25,.81,270.16,.72,271.13,.66,267.24,.68,269.46,.70,268.82,.72,264.01,.71,259.46,.70,254.67,.18,239.07
2019.01.09-17:00,1.97,253.27,1.97,254.32,1.96,253.54,1.69,251.15,1.34,254.91,1.11,257.48,.97,270.55,.82,269.58,.73,270.63,.67,268.22,.68,269.82,.69,268.32,.71,263.48,.71,259.21,.71,253.90,.18,237.75
2019.01.09-18:00,1.92,255.43,1.91,256.39,1.92,256.31,1.75,254.69,1.39,256.94,1.15,260.20,.96,271.69,.82,269.09,.72,269.93,.67,268.91,.67,269.35,.67,267.06,.70,262.37,.71,258.44,.73,253.32,.18,237.03
2019.01.09-19:00,1.80,257.54,1.80,258.37,1.80,259.03,1.72,259.51,1.40,259.73,1.14,263.74,.93,273.60,.82,269.90,.72,270.18,.66,270.29,.66,269.41,.66,266.43,.69,261.97,.71,258.17,.74,253.79,.18,237.93
2019.01.09-20:00,1.77,258.09,1.77,258.74,1.76,260.15,1.65,263.57,1.38,262.42,1.11,267.09,.88,275.64,.79,271.31,.69,271.47,.64,272.05,.63,270.06,.64,266.48,.68,262.06,.70,257.94,.73,254.47,.18,238.76
2019.01.09-21:00,1.64,259.27,1.65,259.74,1.62,260.98,1.48,268.00,1.32,265.49,1.04,270.67,.81,277.83,.75,273.76,.67,273.25,.61,273.98,.62,271.03,.63,267.11,.66,262.49,.68,257.52,.72,255.01,.17,239.36
2019.01.09-22:00,1.49,260.05,1.49,260.29,1.47,260.76,1.26,271.09,1.21,268.26,.96,274.12,.75,279.72,.71,276.53,.66,275.21,.60,276.25,.61,272.66,.62,268.47,.66,263.48,.68,257.25,.71,255.48,.17,239.92
2019.01.09-23:00,1.50,258.65,1.50,258.77,1.47,258.90,1.14,269.82,1.14,269.41,.91,277.08,.70,281.16,.67,278.87,.64,278.08,.57,279.64,.58,275.54,.60,271.00,.64,265.36,.66,257.58,.68,256.06,.17,240.27
2019.01.09-24:00,1.55,257.14,1.54,257.14,1.51,257.24,1.07,266.09,1.10,270.05,.88,279.92,.67,282.30,.64,280.39,.63,281.03,.55,283.19,.56,278.78,.58,273.80,.63,267.55,.65,258.54,.65,256.77,.16,240.93
2019.01.10-01:00,1.58,255.06,1.58,255.02,1.53,255.23,1.04,260.95,1.07,270.59,.84,282.23,.67,282.73,.62,280.32,.64,283.10,.55,285.58,.56,280.97,.57,275.52,.64,269.03,.66,259.71,.65,257.21,.16,241.71
2019.01.10-02:00,1.62,253.11,1.62,253.07,1.56,253.31,1.06,255.76,1.04,271.00,.80,283.38,.66,282.38,.62,278.91,.65,284.45,.57,287.00,.56,282.16,.58,276.14,.65,269.79,.68,261.17,.67,257.50,.16,242.65
2019.01.10-03:00,1.67,252.34,1.67,252.30,1.61,252.33,1.15,251.32,1.03,270.04,.77,281.49,.67,280.09,.64,276.06,.67,285.11,.58,287.73,.58,282.59,.60,275.94,.68,270.05,.72,262.84,.70,257.79,.17,243.57
2019.01.10-04:00,1.72,252.98,1.72,252.91,1.67,252.57,1.28,248.62,1.06,267.57,.77,276.57,.68,275.81,.67,272.84,.69,285.65,.60,288.25,.59,282.62,.62,275.30,.70,270.06,.75,264.49,.73,258.07,.18,244.29
2019.01.10-05:00,1.75,254.34,1.76,254.15,1.73,253.55,1.45,248.37,1.10,264.96,.79,270.94,.71,271.21,.71,270.75,.69,286.59,.60,288.64,.59,282.20,.63,274.27,.72,269.95,.77,265.85,.75,258.27,.18,244.81
2019.01.10-06:00,1.76,255.89,1.78,255.50,1.77,254.93,1.59,250.39,1.14,263.40,.83,266.74,.74,267.97,.75,270.33,.69,288.10,.59,288.90,.59,281.39,.63,273.03,.74,269.75,.78,266.72,.77,258.34,.19,245.02
2019.01.10-07:00,1.75,257.51,1.79,257.07,1.80,256.91,1.68,254.37,1.17,263.34,.87,264.91,.77,266.72,.78,271.37,.67,289.81,.57,288.90,.57,280.24,.63,271.76,.74,269.40,.77,266.91,.77,258.19,.19,244.72
2019.01.10-08:00,1.71,258.85,1.78,258.61,1.79,259.16,1.69,259.38,1.16,264.45,.89,265.06,.77,267.07,.78,273.84,.64,291.79,.54,288.70,.56,279.05,.63,270.82,.74,269.01,.76,266.46,.77,257.87,.19,243.91
2019.01.10-09:00,1.62,259.31,1.74,259.68,1.74,260.89,1.63,263.87,1.12,265.35,.86,265.69,.76,268.26,.76,277.77,.60,294.13,.51,288.48,.55,278.35,.62,270.64,.74,268.92,.75,265.79,.77,257.66,.19,243.36
2019.01.10-10:00,1.50,259.31,1.65,260.19,1.65,261.51,1.51,266.76,1.06,265.09,.80,265.78,.72,269.47,.73,282.30,.57,296.04,.48,288.41,.54,278.52,.62,271.39,.74,269.33,.74,265.37,.76,257.84,.19,243.62
2019.01.10-11:00,1.38,258.70,1.53,259.59,1.52,260.43,1.37,267.42,1.01,263.55,.75,264.53,.69,269.88,.70,286.71,.54,297.23,.47,288.56,.54,279.56,.61,272.81,.73,270.16,.73,265.38,.75,258.40,.18,244.62
2019.01.10-12:00,1.29,256.77,1.48,258.15,1.47,258.40,1.29,266.20,1.00,261.12,.74,262.39,.68,270.13,.67,291.13,.50,297.99,.45,289.11,.53,281.37,.59,274.62,.72,271.28,.71,265.76,.73,259.10,.18,245.84
2019.01.10-13:00,1.29,254.69,1.51,256.93,1.50,256.89,1.27,264.47,1.04,259.38,.76,261.06,.69,270.73,.63,294.92,.47,297.47,.44,289.34,.51,283.08,.57,276.01,.70,272.13,.69,265.98,.71,259.56,.17,246.76
2019.01.10-14:00,1.34,253.09,1.56,256.14,1.56,256.05,1.29,262.62,1.09,258.62,.80,260.60,.71,271.17,.60,297.14,.45,295.22,.43,288.73,.50,284.12,.56,276.53,.69,272.40,.68,265.84,.70,259.80,.17,247.53
2019.01.10-15:00,1.41,252.31,1.61,255.75,1.62,255.85,1.33,260.77,1.15,258.46,.85,260.77,.74,271.51,.56,297.51,.43,291.51,.42,287.18,.50,284.33,.54,276.10,.68,271.97,.68,265.26,.70,259.85,.17,248.20
2019.01.10-16:00,1.44,251.79,1.65,255.62,1.67,256.13,1.38,259.39,1.20,259.01,.89,261.53,.77,272.08,.53,296.16,.43,287.01,.42,284.91,.49,283.83,.54,274.96,.67,270.89,.69,264.22,.71,259.70,.17,248.50
2019.01.10-17:00,1.44,250.99,1.68,255.39,1.70,256.70,1.44,259.08,1.26,260.55,.94,262.93,.79,273.24,.50,293.63,.42,282.43,.41,282.47,.48,283.04,.53,273.60,.66,269.47,.69,262.84,.72,259.28,.17,248.18
2019.01.10-18:00,1.41,249.90,1.66,254.98,1.69,257.62,1.49,260.17,1.30,262.98,.97,265.20,.80,275.38,.46,290.79,.41,277.84,.40,280.26,.46,282.17,.52,272.24,.65,267.91,.70,261.16,.72,258.47,.17,247.08
2019.01.10-19:00,1.38,249.06,1.61,254.50,1.64,258.93,1.49,262.71,1.29,266.19,.98,268.70,.77,278.80,.42,288.41,.40,273.64,.38,278.49,.44,281.18,.50,270.72,.63,266.17,.70,259.11,.71,257.08,.17,245.10
2019.01.10-20:00,1.36,248.70,1.55,253.98,1.55,259.86,1.43,265.98,1.25,269.59,.96,273.13,.72,283.44,.38,286.93,.39,271.00,.36,277.63,.41,280.43,.48,269.21,.62,264.44,.69,256.91,.70,255.25,.16,242.56
2019.01.10-21:00,1.37,248.38,1.51,253.24,1.47,259.35,1.34,268.40,1.17,271.89,.91,277.26,.65,288.35,.33,286.09,.37,270.78,.33,278.61,.38,280.83,.45,268.40,.60,263.29,.68,255.07,.68,253.51,.16,240.29
2019.01.10-22:00,1.36,248.53,1.45,252.15,1.37,257.22,1.20,268.80,1.07,272.32,.83,280.02,.56,292.55,.29,285.43,.35,273.02,.30,281.55,.34,282.73,.42,268.85,.58,263.21,.67,254.12,.65,252.49,.16,239.30
2019.01.10-23:00,1.34,247.65,1.40,250.31,1.32,253.01,1.06,265.48,.96,270.21,.75,280.80,.47,294.68,.25,284.02,.33,277.12,.27,286.69,.32,286.43,.39,270.83,.56,264.32,.66,254.19,.63,252.50,.16,239.81
2019.01.10-24:00,1.36,244.92,1.44,249.05,1.37,250.00,1.01,260.00,.91,267.64,.69,280.89,.38,294.30,.21,281.27,.31,282.35,.24,293.02,.29,290.70,.36,273.16,.54,265.70,.64,254.55,.61,252.89,.15,240.60
2019.01.11-01:00,1.42,242.91,1.52,248.66,1.45,248.85,1.02,255.18,.90,266.45,.64,281.42,.32,290.97,.19,277.07,.28,287.51,.22,297.91,.26,293.11,.33,274.21,.52,266.46,.63,254.73,.60,253.25,.15,241.27
2019.01.11-02:00,1.49,243.09,1.59,249.31,1.53,249.03,1.07,251.94,.91,266.10,.62,281.78,.29,283.38,.19,271.75,.27,291.41,.20,299.30,.24,292.01,.32,272.96,.52,266.13,.63,254.52,.59,253.33,.14,241.60
2019.01.11-03:00,1.56,244.83,1.65,250.42,1.59,249.66,1.16,249.84,.94,265.33,.61,280.74,.29,272.96,.21,267.56,.27,293.85,.19,296.95,.23,287.52,.31,269.66,.51,264.76,.63,253.91,.60,253.07,.15,241.46
2019.01.11-04:00,1.63,247.72,1.69,251.63,1.63,250.24,1.27,248.91,.99,264.04,.61,277.77,.34,263.72,.25,265.22,.27,294.90,.17,291.18,.22,280.50,.31,265.02,.51,262.58,.65,253.02,.61,252.44,.15,240.82
2019.01.11-05:00,1.68,251.08,1.70,253.28,1.66,251.28,1.38,249.72,1.04,262.89,.62,273.08,.40,256.87,.29,263.16,.27,294.48,.16,282.63,.21,272.02,.32,259.70,.52,259.83,.67,252.05,.63,251.52,.15,239.84
2019.01.11-06:00,1.71,254.30,1.71,255.73,1.70,253.64,1.47,252.31,1.07,262.12,.63,267.27,.46,251.70,.32,260.35,.25,292.43,.15,271.18,.21,262.45,.33,253.95,.52,256.68,.69,251.18,.64,250.47,.15,238.76
2019.01.11-07:00,1.73,257.73,1.72,258.98,1.72,257.66,1.51,256.14,1.07,261.71,.63,261.40,.51,248.17,.33,257.30,.21,288.32,.15,255.32,.21,251.20,.33,247.67,.52,253.07,.70,250.33,.64,249.36,.16,237.59
2019.01.11-08:00,1.71,261.00,1.70,262.25,1.69,262.35,1.52,260.48,1.04,261.41,.63,256.45,.54,246.93,.33,255.53,.17,281.82,.15,236.17,.21,238.72,.34,241.17,.51,249.19,.70,249.42,.64,248.30,.15,236.48
2019.01.11-09:00,1.64,263.70,1.64,264.89,1.59,266.47,1.48,264.74,1.01,260.76,.63,252.88,.54,248.00,.32,255.73,.13,271.14,.16,217.80,.21,225.80,.34,234.72,.51,245.27,.69,248.34,.63,247.30,.15,235.25
2019.01.11-10:00,1.56,265.03,1.56,265.98,1.47,268.43,1.40,267.82,.98,259.26,.63,250.61,.54,250.67,.29,257.47,.10,251.34,.19,203.56,.22,213.47,.34,228.70,.49,241.72,.67,247.16,.61,246.49,.15,233.83
2019.01.11-11:00,1.44,263.84,1.44,265.20,1.32,267.20,1.26,269.26,.94,257.59,.64,249.60,.52,254.13,.26,259.88,.09,224.92,.21,195.28,.23,203.58,.34,223.80,.48,238.81,.64,246.04,.59,245.97,.14,232.46
2019.01.11-12:00,1.31,260.08,1.30,262.21,1.18,262.45,1.11,268.57,.91,256.34,.64,249.86,.51,257.89,.24,262.70,.10,209.32,.23,191.55,.24,196.20,.33,219.76,.46,236.25,.61,244.68,.57,245.27,.14,230.82
2019.01.11-13:00,1.27,256.94,1.26,259.04,1.14,256.89,1.01,265.85,.90,256.30,.66,251.70,.50,261.59,.23,265.05,.13,203.25,.25,189.48,.26,189.37,.33,214.95,.44,232.97,.58,242.28,.55,243.28,.14,227.49
2019.01.11-14:00,1.29,255.62,1.27,257.11,1.18,253.12,.98,262.49,.93,257.82,.69,254.52,.50,264.35,.22,265.61,.15,204.03,.26,189.49,.28,184.09,.33,209.64,.43,228.88,.56,238.85,.53,239.81,.14,222.74
2019.01.11-15:00,1.31,255.53,1.30,255.62,1.25,250.97,1.01,259.63,.97,260.48,.74,257.93,.52,265.87,.23,263.73,.18,208.50,.27,191.86,.31,181.12,.33,204.64,.42,224.41,.56,234.84,.53,235.39,.15,217.75
2019.01.11-16:00,1.34,254.02,1.33,254.04,1.31,249.59,1.06,257.44,1.02,263.01,.79,261.24,.53,266.26,.25,259.61,.21,213.43,.28,196.02,.33,180.28,.35,200.71,.42,220.23,.56,230.92,.55,230.90,.16,213.59
2019.01.11-17:00,1.35,252.69,1.34,252.76,1.37,249.01,1.12,255.51,1.04,264.38,.83,263.95,.54,265.86,.26,254.28,.25,217.56,.28,201.09,.35,181.25,.36,198.30,.43,216.88,.58,227.55,.57,227.00,.18,210.81
2019.01.11-18:00,1.34,251.44,1.33,251.56,1.40,249.15,1.15,253.96,1.02,264.75,.82,266.40,.53,265.41,.27,249.00,.28,220.95,.28,206.07,.36,183.51,.39,197.35,.45,214.51,.61,224.88,.61,223.88,.19,209.24
2019.01.11-19:00,1.36,250.81,1.35,251.06,1.44,250.66,1.19,254.07,.98,264.73,.79,268.58,.50,264.75,.28,243.24,.30,222.73,.27,208.38,.37,184.79,.40,196.02,.47,211.97,.64,222.33,.65,220.98,.21,207.75
2019.01.11-20:00,1.38,250.63,1.37,251.09,1.44,253.17,1.19,254.35,.93,263.46,.73,269.70,.46,263.18,.28,237.43,.30,223.46,.25,209.27,.37,185.98,.41,195.04,.48,210.02,.65,220.30,.67,218.70,.22,206.60
2019.01.11-21:00,1.39,250.67,1.38,251.34,1.40,255.80,1.17,254.57,.86,260.64,.64,269.10,.41,260.26,.28,232.03,.30,223.57,.24,208.58,.35,186.83,.41,194.37,.49,208.78,.66,218.65,.69,216.94,.22,205.69
2019.01.11-22:00,1.48,251.11,1.46,251.84,1.40,257.62,1.17,255.76,.83,258.24,.58,267.95,.36,256.20,.28,228.14,.28,223.98,.21,203.15,.34,184.93,.40,192.18,.48,206.76,.65,216.20,.69,214.54,.22,203.65
2019.01.11-23:00,1.49,250.88,1.48,251.48,1.34,257.19,1.13,257.32,.80,256.88,.51,267.52,.32,254.43,.27,228.53,.25,225.65,.20,198.10,.32,184.08,.39,191.35,.47,205.90,.64,214.36,.69,213.10,.22,201.83
2019.01.11-24:00,1.47,250.50,1.46,250.81,1.29,254.94,1.08,258.42,.78,255.97,.47,266.63,.29,253.71,.25,231.93,.21,228.26,.19,193.77,.31,184.11,.38,191.86,.46,206.35,.63,213.43,.69,212.69,.21,200.37
2019.01.12-01:00,1.52,251.80,1.51,252.10,1.34,253.64,1.07,258.69,.81,256.22,.47,265.37,.29,252.12,.24,237.03,.18,231.67,.19,188.35,.30,183.10,.37,192.14,.45,206.74,.63,212.74,.68,212.40,.20,198.24
2019.01.12-02:00,1.57,253.84,1.55,254.19,1.38,253.45,1.07,258.20,.84,256.88,.47,263.50,.30,249.86,.23,242.94,.15,235.53,.19,187.54,.30,184.33,.37,194.34,.45,208.82,.63,213.44,.67,213.16,.20,196.98
2019.01.12-03:00,1.59,255.70,1.57,256.18,1.41,253.32,1.09,256.99,.88,257.40,.49,260.75,.33,247.22,.24,247.97,.15,238.72,.21,192.13,.31,188.36,.38,198.67,.47,212.69,.64,215.58,.67,214.87,.19,197.07
2019.01.12-04:00,1.60,257.66,1.58,258.17,1.43,253.37,1.13,255.93,.92,257.65,.53,256.92,.38,244.18,.26,250.24,.16,238.77,.25,199.37,.33,194.48,.40,204.71,.49,217.86,.66,218.68,.68,217.12,.20,198.34
2019.01.12-05:00,1.58,260.26,1.56,260.75,1.45,254.75,1.18,256.08,.96,258.06,.58,252.60,.44,241.01,.29,249.25,.18,234.94,.29,206.62,.36,201.74,.42,211.94,.52,223.66,.68,222.11,.69,219.51,.20,200.47
2019.01.12-06:00,1.55,262.84,1.53,263.28,1.47,257.68,1.22,257.79,.99,259.17,.63,249.49,.50,239.29,.31,246.80,.21,229.83,.34,212.89,.40,208.45,.46,218.89,.55,228.81,.70,225.12,.71,221.59,.21,202.71
2019.01.12-07:00,1.50,264.62,1.48,265.02,1.45,261.44,1.24,260.39,.98,260.71,.68,248.43,.57,239.71,.33,244.65,.25,226.45,.39,219.07,.45,214.32,.50,224.83,.60,232.68,.71,227.18,.72,222.87,.22,204.58
2019.01.12-08:00,1.43,265.43,1.41,265.79,1.38,264.77,1.22,263.32,.96,262.21,.72,249.48,.61,242.39,.35,243.77,.28,225.08,.43,225.22,.49,219.11,.54,229.54,.63,235.12,.72,228.19,.73,223.27,.22,205.60
2019.01.12-09:00,1.31,264.54,1.29,264.83,1.24,265.70,1.15,265.49,.92,263.17,.73,252.27,.65,247.04,.36,244.46,.31,226.01,.46,231.23,.52,223.28,.58,233.35,.66,236.62,.72,228.57,.74,223.27,.23,205.99
2019.01.12-10:00,1.15,261.48,1.15,261.73,1.07,263.11,1.03,265.96,.85,263.36,.72,256.06,.66,253.40,.37,246.99,.33,228.66,.47,236.81,.54,226.95,.61,236.49,.69,237.54,.72,228.74,.74,223.34,.23,205.88
2019.01.12-11:00,1.10,255.94,1.10,256.14,1.01,256.80,.93,263.27,.80,261.90,.70,259.12,.64,260.32,.36,250.07,.35,231.49,.47,241.57,.54,229.58,.62,238.65,.69,237.61,.71,228.50,.73,223.26,.23,204.88
2019.01.12-12:00,1.10,249.62,1.10,249.84,1.01,249.17,.87,257.62,.76,258.86,.66,260.43,.59,266.36,.35,253.13,.35,234.82,.46,245.43,.53,231.88,.63,240.34,.69,237.51,.71,228.85,.73,224.14,.23,204.53
2019.01.12-13:00,1.13,244.88,1.14,245.20,1.08,243.92,.87,251.37,.75,255.90,.62,260.26,.53,270.87,.33,256.22,.35,238.76,.45,248.51,.52,233.54,.63,241.27,.68,237.00,.70,229.44,.73,225.58,.22,204.85
2019.01.12-14:00,1.25,244.15,1.25,244.64,1.23,243.66,.96,248.77,.81,255.12,.62,259.43,.47,272.52,.32,256.96,.35,242.27,.43,250.64,.51,234.05,.62,240.91,.65,235.43,.69,229.64,.72,226.76,.22,204.44
2019.01.12-15:00,1.34,244.73,1.35,245.35,1.35,245.80,1.07,248.77,.88,255.49,.65,258.39,.43,270.08,.31,254.69,.35,245.19,.42,251.87,.50,234.62,.62,240.23,.64,233.75,.69,230.14,.71,228.21,.21,204.26
2019.01.12-16:00,1.39,246.25,1.40,247.00,1.44,249.80,1.16,250.57,.94,256.50,.69,257.83,.41,264.28,.32,250.61,.37,246.93,.42,251.76,.50,235.41,.63,239.72,.64,232.49,.70,230.69,.71,229.62,.21,204.62
2019.01.12-17:00,1.39,248.07,1.41,248.89,1.46,254.42,1.22,253.04,.98,257.43,.73,257.50,.43,257.31,.35,246.61,.38,247.68,.42,250.50,.51,236.42,.64,239.81,.66,232.17,.71,231.40,.71,230.96,.21,205.74
2019.01.12-18:00,1.36,249.01,1.38,249.83,1.41,257.94,1.23,255.36,.99,258.22,.76,257.97,.46,252.87,.40,245.41,.40,248.99,.44,248.80,.52,237.33,.66,240.26,.70,232.59,.72,232.14,.72,232.01,.21,207.36
2019.01.12-19:00,1.32,249.07,1.35,249.82,1.34,259.79,1.23,257.40,1.00,259.09,.79,259.80,.51,252.63,.44,247.92,.42,251.81,.45,247.10,.53,237.51,.67,240.23,.73,232.94,.72,232.29,.72,232.24,.21,208.41
2019.01.12-20:00,1.29,248.56,1.32,249.18,1.26,259.89,1.20,259.00,.98,260.02,.78,262.71,.53,255.65,.47,253.10,.43,256.10,.46,245.85,.53,237.03,.68,239.64,.76,233.03,.71,231.88,.72,231.86,.21,208.67
2019.01.12-21:00,1.31,248.28,1.34,248.79,1.23,258.58,1.18,260.31,.96,260.88,.75,266.16,.53,260.04,.47,259.66,.42,261.47,.45,244.72,.52,236.12,.68,238.71,.77,232.82,.70,231.16,.71,231.19,.21,208.13
2019.01.12-22:00,1.34,248.12,1.36,248.51,1.21,255.91,1.14,261.19,.91,261.29,.68,268.39,.49,264.03,.44,266.23,.39,267.02,.44,243.90,.51,235.58,.68,238.31,.77,232.76,.68,230.84,.70,230.86,.21,207.34
2019.01.12-23:00,1.35,248.61,1.37,248.99,1.21,252.87,1.10,262.35,.87,262.22,.61,269.40,.43,267.15,.40,272.42,.35,272.21,.44,243.45,.49,235.54,.68,238.54,.75,232.73,.67,230.89,.69,230.76,.20,206.35
2019.01.12-24:00,1.39,249.91,1.41,250.27,1.27,250.67,1.08,263.27,.85,264.01,.57,270.16,.38,269.12,.35,278.04,.31,276.48,.43,242.98,.47,235.38,.68,238.77,.73,232.17,.65,230.53,.66,230.09,.20,204.46
2019.01.13-01:00,1.41,251.69,1.41,252.16,1.33,250.02,1.05,263.25,.83,266.05,.54,270.97,.35,269.70,.31,282.53,.27,279.71,.42,243.41,.45,235.58,.67,239.47,.71,231.78,.64,230.38,.64,229.47,.19,203.00
2019.01.13-02:00,1.45,254.53,1.44,255.38,1.42,252.09,1.06,263.00,.83,268.00,.54,271.95,.35,269.31,.29,285.27,.24,281.01,.42,244.15,.42,235.21,.65,240.00,.68,231.20,.63,229.70,.62,228.37,.19,201.79
2019.01.13-03:00,1.47,257.21,1.46,258.75,1.49,255.66,1.10,262.85,.84,268.90,.56,271.77,.36,267.78,.27,285.33,.22,280.06,.41,245.30,.41,234.52,.63,240.71,.67,231.07,.62,229.05,.61,227.45,.20,201.71
2019.01.13-04:00,1.47,258.96,1.45,261.39,1.52,259.35,1.13,262.51,.85,267.98,.58,269.51,.39,264.74,.26,282.25,.20,276.75,.41,246.91,.41,234.37,.62,242.07,.67,232.09,.63,229.24,.61,227.55,.20,203.18
2019.01.13-05:00,1.44,260.38,1.42,263.43,1.51,262.91,1.14,262.06,.85,265.69,.60,265.52,.43,260.53,.26,275.87,.19,270.17,.42,248.70,.42,235.11,.62,243.83,.68,234.00,.65,230.25,.62,228.57,.20,205.73
2019.01.13-06:00,1.40,261.26,1.37,264.55,1.47,265.85,1.14,261.62,.86,262.73,.62,260.89,.47,256.28,.27,267.30,.20,261.05,.42,250.36,.44,236.65,.62,245.66,.70,236.27,.68,231.79,.65,230.09,.21,208.64
2019.01.13-07:00,1.34,261.40,1.31,264.77,1.39,268.01,1.15,262.25,.86,260.57,.64,257.40,.52,254.12,.30,260.40,.22,252.94,.44,251.62,.47,238.39,.62,246.99,.72,238.15,.70,233.23,.67,231.43,.21,211.07
2019.01.13-08:00,1.30,261.37,1.27,264.51,1.31,269.22,1.15,264.37,.87,259.81,.66,255.19,.56,254.29,.34,256.71,.26,247.61,.45,252.29,.48,239.78,.63,247.67,.73,239.21,.71,234.23,.68,232.24,.21,212.62
2019.01.13-09:00,1.32,261.60,1.29,264.18,1.27,269.18,1.15,266.73,.88,259.79,.68,253.72,.59,256.05,.37,255.52,.30,245.02,.46,252.45,.48,240.56,.62,247.91,.72,239.45,.71,234.67,.68,232.45,.21,213.12
2019.01.13-10:00,1.35,261.22,1.32,263.81,1.25,267.59,1.11,268.23,.88,259.43,.70,252.73,.61,258.82,.40,256.39,.34,245.05,.46,252.39,.46,241.04,.60,248.28,.71,239.31,.70,234.88,.67,232.47,.21,213.09
2019.01.13-11:00,1.37,260.47,1.33,263.37,1.23,264.74,1.05,268.49,.87,258.63,.72,252.73,.61,262.47,.41,259.30,.36,247.29,.45,252.34,.45,241.10,.58,248.87,.69,238.90,.69,234.92,.65,232.36,.20,212.74
2019.01.13-12:00,1.40,260.22,1.36,263.15,1.26,262.03,1.01,267.12,.89,258.15,.75,254.46,.62,266.90,.42,263.72,.38,251.05,.44,252.30,.43,240.21,.54,249.18,.66,237.95,.66,234.37,.63,231.65,.19,211.61
2019.01.13-13:00,1.40,261.44,1.36,263.44,1.32,260.97,.99,264.22,.93,258.18,.80,257.22,.63,271.33,.43,268.97,.38,255.83,.42,252.40,.41,238.79,.51,249.24,.64,236.83,.64,233.54,.60,230.69,.19,210.44
2019.01.13-14:00,1.37,263.50,1.36,264.17,1.36,262.00,1.01,260.77,.96,258.69,.84,260.75,.63,275.67,.42,274.39,.38,261.41,.41,253.03,.41,237.41,.48,248.87,.62,235.70,.62,232.52,.58,229.63,.19,209.65
2019.01.13-15:00,1.40,264.48,1.38,264.79,1.40,263.61,1.09,258.45,1.02,259.75,.88,264.89,.64,279.77,.42,279.08,.38,267.18,.40,254.21,.41,236.24,.46,247.73,.62,234.49,.61,231.06,.57,228.25,.19,208.93
2019.01.13-16:00,1.42,264.09,1.41,264.51,1.42,263.94,1.17,257.13,1.07,261.17,.92,268.93,.64,283.20,.43,282.77,.39,272.76,.39,256.26,.42,236.18,.45,246.44,.62,233.97,.61,229.96,.57,227.39,.19,209.09
2019.01.13-17:00,1.44,263.09,1.41,263.51,1.42,263.43,1.24,256.51,1.12,262.73,.94,272.40,.64,285.51,.43,284.86,.39,277.15,.39,258.66,.44,237.21,.45,245.40,.64,234.45,.62,229.68,.58,227.42,.19,210.27
2019.01.13-18:00,1.43,261.96,1.40,262.34,1.40,262.57,1.30,256.41,1.14,263.67,.96,274.78,.64,286.25,.43,284.53,.38,279.23,.39,260.49,.46,238.89,.47,245.30,.66,236.04,.64,230.40,.59,228.39,.20,212.11
2019.01.13-19:00,1.42,261.18,1.40,261.55,1.39,261.66,1.37,257.12,1.15,263.47,.95,275.75,.61,284.89,.42,281.39,.37,278.41,.39,260.93,.48,240.72,.49,246.48,.69,238.45,.66,232.01,.61,230.12,.20,214.31
2019.01.13-20:00,1.44,261.19,1.42,261.48,1.40,260.96,1.44,258.80,1.18,262.80,.92,275.57,.56,281.33,.40,276.19,.36,275.44,.39,260.11,.50,242.35,.51,248.32,.71,241.06,.68,233.90,.62,231.95,.20,216.18
2019.01.13-21:00,1.49,261.68,1.48,261.84,1.46,260.59,1.48,260.83,1.20,262.73,.87,274.93,.50,276.09,.39,270.49,.34,271.88,.38,258.94,.50,243.79,.52,250.18,.71,243.38,.68,235.56,.62,233.31,.19,217.21
2019.01.13-22:00,1.54,262.15,1.53,262.18,1.53,260.49,1.49,262.43,1.22,263.61,.83,274.31,.47,270.01,.38,265.46,.33,268.91,.37,258.23,.49,245.13,.51,251.74,.70,245.17,.68,236.71,.61,233.91,.19,217.22
2019.01.13-23:00,1.58,262.57,1.56,262.47,1.58,260.73,1.48,263.38,1.22,265.22,.80,274.10,.47,264.87,.39,261.99,.33,267.35,.36,258.22,.48,246.25,.49,252.71,.68,246.23,.66,237.23,.59,233.63,.18,216.16
2019.01.13-24:00,1.58,262.97,1.56,262.74,1.59,261.17,1.47,263.64,1.20,267.15,.78,274.57,.48,262.22,.40,260.57,.34,267.59,.35,259.14,.45,247.35,.46,253.10,.65,246.69,.64,237.38,.57,232.84,.18,214.58